Time[GMT],significant_wave_height[m](0m),dominant_wave_period[s](0m)
2011-03-09 20:00,,
2011-03-09 20:30, 0.02,4.6
2011-03-09 21:00, 0.02,5.3
2011-03-09 21:30, 0.02,4.6
2011-03-09 22:00, 0.02,4.6
2011-03-09 22:30, 0.02,4.6
2011-03-09 23:00, 0.04,2.7
2011-03-09 23:30, 0.04,3.2
2011-03-10 00:00, 0.04,4.6
2011-03-10 00:30, 0.04,4.0
2011-03-10 01:00, 0.03,5.3
2011-03-10 01:30, 0.02,5.3
2011-03-10 02:00, 0.02,5.3
2011-03-10 02:30, 0.03,4.6
2011-03-10 03:00, 0.05,4.6
2011-03-10 03:30, 0.06,1.9
2011-03-10 04:00, 0.07,1.9
2011-03-10 04:30, 0.06,1.9
2011-03-10 05:00, 0.05,1.7
2011-03-10 05:30, 0.04,1.9
2011-03-10 06:00, 0.05,6.4
2011-03-10 06:30, 0.04,4.6
2011-03-10 07:00, 0.05,6.4
2011-03-10 07:30, 0.05,6.4
2011-03-10 08:00, 0.06,5.3
2011-03-10 08:30, 0.06,3.6
2011-03-10 09:00, 0.07,4.0
2011-03-10 09:30, 0.07,4.6
2011-03-10 10:00, 0.07,5.3
2011-03-10 10:30, 0.08,5.3
2011-03-10 11:00, 0.09,4.6
2011-03-10 11:30, 0.11,4.6
2011-03-10 12:00, 0.09,4.0
2011-03-10 12:30, 0.09,4.6
2011-03-10 13:00, 0.11,10.7
2011-03-10 13:30, 0.08,4.6
2011-03-10 14:00, 0.08,5.3
2011-03-10 14:30, 0.08,4.6
2011-03-10 15:00, 0.09,4.6
2011-03-10 15:30, 0.09,5.3
2011-03-10 16:00, 0.09,4.6
2011-03-10 16:30, 0.10,4.6
2011-03-10 17:00, 0.12,5.3
2011-03-10 17:30, 0.12,4.6
2011-03-10 18:00, 0.10,4.0
2011-03-10 18:30, 0.08,4.6
2011-03-10 19:00, 0.09,4.6
2011-03-10 19:30, 0.09,4.6
2011-03-10 20:00, 0.12,4.0
2011-03-10 20:30, 0.11,4.6
2011-03-10 21:00, 0.12,4.6
2011-03-10 21:30, 0.13,5.3
2011-03-10 22:00, 0.12,4.6
2011-03-10 22:30, 0.15,4.6
2011-03-10 23:00, 0.15,4.6
2011-03-10 23:30, 0.12,4.0
2011-03-11 00:00, 0.10,4.0
2011-03-11 00:30, 0.09,4.6
2011-03-11 01:00, 0.09,4.0
2011-03-11 01:30, 0.08,3.6
2011-03-11 02:00, 0.11,4.0
2011-03-11 02:30, 0.13,4.6
2011-03-11 03:00, 0.15,4.6
2011-03-11 03:30, 0.14,4.6
2011-03-11 04:00, 0.14,4.6
2011-03-11 04:30, 0.15,4.6
2011-03-11 05:00, 0.14,5.3
2011-03-11 05:30, 0.13,4.6
2011-03-11 06:00, 0.13,4.6
2011-03-11 06:30, 0.13,4.6
2011-03-11 07:00, 0.15,4.6
2011-03-11 07:30, 0.17,1.9
2011-03-11 08:00, 0.15,1.8
2011-03-11 08:30, 0.14,5.3
2011-03-11 09:00, 0.12,5.3
2011-03-11 09:30, 0.12,5.3
2011-03-11 10:00, 0.12,5.3
2011-03-11 10:30, 0.13,5.3
2011-03-11 11:00, 0.11,5.3
2011-03-11 11:30, 0.12,4.6
2011-03-11 12:00, 0.09,4.0
2011-03-11 12:30, 0.08,3.6
2011-03-11 13:00, 0.08,3.6
2011-03-11 13:30, 0.09,3.6
2011-03-11 14:00, 0.13,4.0
2011-03-11 14:30, 0.10,5.3
2011-03-11 15:00, 0.12,3.6
2011-03-11 15:30, 0.12,4.6
2011-03-11 16:00, 0.16,4.6
2011-03-11 16:30, 0.14,5.3
2011-03-11 17:00, 0.14,4.6
2011-03-11 17:30, 0.17,5.3
2011-03-11 18:00, 0.18,4.0
2011-03-11 18:30, 0.18,3.6
2011-03-11 19:00, 0.13,5.3
2011-03-11 19:30, 0.11,5.3
2011-03-11 20:00, 0.10,5.3
2011-03-11 20:30, 0.13,5.3
2011-03-11 21:00, 0.11,4.6
2011-03-11 21:30, 0.14,4.6
2011-03-11 22:00, 0.14,4.0
2011-03-11 22:30, 0.13,5.3
2011-03-11 23:00, 0.15,4.0
2011-03-11 23:30, 0.14,5.3
2011-03-12 00:00, 0.13,5.3
2011-03-12 00:30, 0.16,3.6
2011-03-12 01:00, 0.18,5.3
2011-03-12 01:30, 0.15,4.0
2011-03-12 02:00, 0.13,3.6
2011-03-12 02:30, 0.17,4.0
2011-03-12 03:00, 0.15,5.3
2011-03-12 03:30, 0.12,4.0
2011-03-12 04:00, 0.13,4.6
2011-03-12 04:30, 0.14,4.0
2011-03-12 05:00, 0.13,5.3
2011-03-12 05:30, 0.14,5.3
2011-03-12 06:00, 0.12,4.6
2011-03-12 06:30, 0.10,4.6
2011-03-12 07:00, 0.13,4.0
2011-03-12 07:30, 0.10,3.6
2011-03-12 08:00, 0.09,5.3
2011-03-12 08:30, 0.08,4.0
2011-03-12 09:00, 0.07,5.3
2011-03-12 09:30, 0.08,5.3
2011-03-12 10:00, 0.10,5.3
2011-03-12 10:30, 0.09,5.3
2011-03-12 11:00, 0.07,5.3
2011-03-12 11:30, 0.16,3.2
2011-03-12 12:00, 0.26,2.3
2011-03-12 12:30, 0.30,2.9
2011-03-12 13:00, 0.35,3.2
2011-03-12 13:30, 0.35,3.6
2011-03-12 14:00, 0.36,3.6
2011-03-12 14:30, 0.37,4.0
2011-03-12 15:00, 0.35,4.0
2011-03-12 15:30, 0.26,4.0
2011-03-12 16:00, 0.29,4.0
2011-03-12 16:30, 0.35,3.6
2011-03-12 17:00, 0.35,4.6
2011-03-12 17:30, 0.35,4.6
2011-03-12 18:00, 0.32,4.0
2011-03-12 18:30, 0.31,4.6
2011-03-12 19:00, 0.23,3.6
2011-03-12 19:30, 0.21,4.6
2011-03-12 20:00, 0.26,4.0
2011-03-12 20:30, 0.28,4.6
2011-03-12 21:00, 0.23,4.6
2011-03-12 21:30, 0.18,4.6
2011-03-12 22:00, 0.16,5.3
2011-03-12 22:30, 0.16,4.6
2011-03-12 23:00, 0.18,4.6
2011-03-12 23:30, 0.22,4.6
2011-03-13 00:00, 0.17,4.6
2011-03-13 00:30, 0.15,5.3
2011-03-13 01:00, 0.18,5.3
2011-03-13 01:30, 0.22,4.6
2011-03-13 02:00, 0.23,4.6
2011-03-13 02:30, 0.26,4.6
2011-03-13 03:00, 0.29,4.6
2011-03-13 03:30, 0.24,4.6
2011-03-13 04:00, 0.21,4.0
2011-03-13 04:30, 0.20,4.0
2011-03-13 05:00, 0.19,4.0
2011-03-13 05:30, 0.18,4.0
2011-03-13 06:00, 0.14,4.0
2011-03-13 06:30, 0.16,2.9
2011-03-13 07:00, 0.14,2.9
2011-03-13 07:30, 0.09,5.3
2011-03-13 08:00, 0.09,5.3
2011-03-13 08:30, 0.10,5.3
2011-03-13 09:00, 0.10,5.3
2011-03-13 09:30, 0.08,5.3
2011-03-13 10:00, 0.09,4.0
2011-03-13 10:30, 0.10,5.3
2011-03-13 11:00, 0.12,3.6
2011-03-13 11:30, 0.19,4.0
2011-03-13 12:00, 0.16,4.0
2011-03-13 12:30, 0.16,4.0
2011-03-13 13:00, 0.20,4.0
2011-03-13 13:30, 0.19,4.0
2011-03-13 14:00, 0.18,3.2
2011-03-13 14:30, 0.15,4.0
2011-03-13 15:00, 0.14,4.0
2011-03-13 15:30, 0.12,2.9
2011-03-13 16:00, 0.11,3.6
2011-03-13 16:30, 0.10,3.6
2011-03-13 17:00, 0.10,4.0
2011-03-13 17:30, 0.07,3.6
2011-03-13 18:00, 0.08,3.6
2011-03-13 18:30, 0.07,5.3
2011-03-13 19:00, 0.09,5.3
2011-03-13 19:30, 0.10,2.9
2011-03-13 20:00, 0.10,3.6
2011-03-13 20:30, 0.09,3.6
2011-03-13 21:00, 0.09,3.6
2011-03-13 21:30, 0.07,5.3
2011-03-13 22:00, 0.07,5.3
2011-03-13 22:30, 0.07,5.3
2011-03-13 23:00, 0.07,5.3
2011-03-13 23:30, 0.07,5.3
2011-03-14 00:00, 0.08,4.6
2011-03-14 00:30, 0.08,5.3
2011-03-14 01:00, 0.08,4.6
2011-03-14 01:30, 0.06,4.6
2011-03-14 02:00, 0.08,3.6
2011-03-14 02:30, 0.08,4.6
2011-03-14 03:00, 0.09,3.6
2011-03-14 03:30, 0.08,3.6
2011-03-14 04:00, 0.07,4.0
2011-03-14 04:30, 0.07,5.3
2011-03-14 05:00, 0.05,4.0
2011-03-14 05:30, 0.07,10.7
2011-03-14 06:00, 0.05,5.3
2011-03-14 06:30, 0.06,5.3
2011-03-14 07:00, 0.04,5.3
2011-03-14 07:30, 0.04,5.3
2011-03-14 08:00, 0.04,5.3
2011-03-14 08:30, 0.05,8.0
2011-03-14 09:00, 0.12,1.6
2011-03-14 09:30, 0.14,1.7
2011-03-14 10:00, 0.11,1.7
2011-03-14 10:30, 0.08,1.5
2011-03-14 11:00, 0.09,4.0
2011-03-14 11:30, 0.08,1.5
2011-03-14 12:00, 0.09,1.5
2011-03-14 12:30, 0.18,1.7
2011-03-14 13:00, 0.17,1.7
2011-03-14 13:30, 0.18,1.7
2011-03-14 14:00, 0.10,1.5
2011-03-14 14:30, 0.07,5.3
2011-03-14 15:00, 0.05,3.6
2011-03-14 15:30, 0.05,4.6
2011-03-14 16:00, 0.05,5.3
2011-03-14 16:30, 0.03,3.2
2011-03-14 17:00, 0.03,4.6
2011-03-14 17:30, 0.03,3.2
2011-03-14 18:00, 0.04,4.6
2011-03-14 18:30, 0.06,8.0
2011-03-14 19:00, 0.04,4.6
2011-03-14 19:30, 0.03,3.6
2011-03-14 20:00, 0.03,5.3
2011-03-14 20:30, 0.02,5.3
2011-03-14 21:00, 0.03,5.3
2011-03-14 21:30, 0.03,5.3
2011-03-14 22:00, 0.02,5.3
2011-03-14 22:30, 0.02,5.3
2011-03-14 23:00, 0.02,5.3
2011-03-14 23:30, 0.05,6.4
2011-03-15 00:00, 0.03,5.3
2011-03-15 00:30, 0.03,5.3
2011-03-15 01:00, 0.03,5.3
2011-03-15 01:30, 0.03,5.3
2011-03-15 02:00, 0.03,5.3
2011-03-15 02:30, 0.03,5.3
2011-03-15 03:00, 0.05,5.3
2011-03-15 03:30, 0.06,1.7
2011-03-15 04:00, 0.06,4.6
2011-03-15 04:30, 0.06,2.0
2011-03-15 05:00, 0.05,2.1
2011-03-15 05:30, 0.04,2.0
2011-03-15 06:00, 0.04,2.0
2011-03-15 06:30, 0.04,2.0
2011-03-15 07:00, 0.04,2.0
2011-03-15 07:30, 0.04,2.1
2011-03-15 08:00, 0.04,2.0
2011-03-15 08:30, 0.04,2.0
2011-03-15 09:00, 0.04,2.3
2011-03-15 09:30, 0.04,2.1
2011-03-15 10:00, 0.03,4.0
2011-03-15 10:30, 0.03,5.3
2011-03-15 11:00, 0.02,5.3
2011-03-15 11:30, 0.06,2.5
2011-03-15 12:00, 0.02,5.3
2011-03-15 12:30, 0.02,5.3
2011-03-15 13:00, 0.02,5.3
2011-03-15 13:30, 0.02,5.3
2011-03-15 14:00, 0.04,1.5
2011-03-15 14:30, 0.05,1.7
2011-03-15 15:00, 0.06,1.7
2011-03-15 15:30, 0.08,1.8
2011-03-15 16:00, 0.09,1.8
2011-03-15 16:30, 0.12,2.0
2011-03-15 17:00, 0.18,2.3
2011-03-15 17:30, 0.28,2.5
2011-03-15 18:00, 0.23,2.7
2011-03-15 18:30, 0.26,2.9
2011-03-15 19:00, 0.25,3.2
2011-03-15 19:30, 0.23,3.2
2011-03-15 20:00, 0.30,3.6
2011-03-15 20:30, 0.27,4.0
2011-03-15 21:00, 0.14,4.0
2011-03-15 21:30, 0.19,4.0
2011-03-15 22:00, 0.18,1.8
2011-03-15 22:30, 0.15,4.0
2011-03-15 23:00, 0.27,4.6
2011-03-15 23:30, 0.25,4.6
2011-03-16 00:00, 0.13,4.6
2011-03-16 00:30, 0.14,4.6
2011-03-16 01:00, 0.16,4.6
2011-03-16 01:30, 0.17,4.6
2011-03-16 02:00, 0.15,4.6
2011-03-16 02:30, 0.20,4.6
2011-03-16 03:00, 0.26,5.3
2011-03-16 03:30, 0.38,4.0
2011-03-16 04:00, 0.36,4.0
2011-03-16 04:30, 0.49,3.2
2011-03-16 05:00, 0.44,4.0
2011-03-16 05:30, 0.54,4.6
2011-03-16 06:00, 0.59,4.0
2011-03-16 06:30, 0.60,4.6
2011-03-16 07:00, 0.57,4.6
2011-03-16 07:30, 0.50,3.6
2011-03-16 08:00, 0.52,4.0
2011-03-16 08:30, 0.41,3.6
2011-03-16 09:00, 0.34,5.3
2011-03-16 09:30, 0.26,5.3
2011-03-16 10:00, 0.21,5.3
2011-03-16 10:30, 0.20,5.3
2011-03-16 11:00, 0.17,5.3
2011-03-16 11:30, 0.19,5.3
2011-03-16 12:00, 0.21,5.3
2011-03-16 12:30, 0.29,5.3
2011-03-16 13:00, 0.19,5.3
2011-03-16 13:30, 0.21,5.3
2011-03-16 14:00, 0.19,5.3
2011-03-16 14:30, 0.28,4.6
2011-03-16 15:00, 0.34,5.3
2011-03-16 15:30, 0.21,5.3
2011-03-16 16:00, 0.23,5.3
2011-03-16 16:30, 0.20,4.6
2011-03-16 17:00, 0.20,5.3
2011-03-16 17:30, 0.20,4.6
2011-03-16 18:00, 0.16,4.6
2011-03-16 18:30, 0.10,4.6
2011-03-16 19:00, 0.09,3.6
2011-03-16 19:30, 0.10,4.6
2011-03-16 20:00, 0.13,4.6
2011-03-16 20:30, 0.10,4.6
2011-03-16 21:00, 0.08,1.7
2011-03-16 21:30, 0.06,4.6
2011-03-16 22:00, 0.05,4.6
2011-03-16 22:30, 0.05,4.6
2011-03-16 23:00, 0.06,4.6
2011-03-16 23:30, 0.06,4.6
2011-03-17 00:00, 0.07,8.0
2011-03-17 00:30, 0.07,5.3
2011-03-17 01:00, 0.08,5.3
2011-03-17 01:30, 0.09,5.3
2011-03-17 02:00, 0.14,16.0
2011-03-17 02:30, 0.08,5.3
2011-03-17 03:00, 0.09,5.3
2011-03-17 03:30, 0.11,3.6
2011-03-17 04:00, 0.11,4.0
2011-03-17 04:30, 0.13,4.6
2011-03-17 05:00, 0.15,4.0
2011-03-17 05:30, 0.12,3.6
2011-03-17 06:00, 0.12,4.0
2011-03-17 06:30, 0.10,4.0
2011-03-17 07:00, 0.07,3.6
2011-03-17 07:30, 0.09,4.0
2011-03-17 08:00, 0.11,3.6
2011-03-17 08:30, 0.09,3.6
2011-03-17 09:00, 0.06,2.7
2011-03-17 09:30, 0.08,5.3
2011-03-17 10:00, 0.08,4.0
2011-03-17 10:30, 0.06,3.6
2011-03-17 11:00, 0.06,5.3
2011-03-17 11:30, 0.05,5.3
2011-03-17 12:00, 0.07,5.3
2011-03-17 12:30, 0.06,5.3
2011-03-17 13:00, 0.05,5.3
2011-03-17 13:30, 0.06,4.0
2011-03-17 14:00, 0.06,5.3
2011-03-17 14:30, 0.05,5.3
2011-03-17 15:00, 0.07,5.3
2011-03-17 15:30, 0.08,4.0
2011-03-17 16:00, 0.07,5.3
2011-03-17 16:30, 0.10,5.3
2011-03-17 17:00, 0.09,5.3
2011-03-17 17:30, 0.09,4.6
2011-03-17 18:00, 0.10,4.6
2011-03-17 18:30, 0.09,2.3
2011-03-17 19:00, 0.07,2.0
2011-03-17 19:30, 0.10,1.9
2011-03-17 20:00, 0.12,1.8
2011-03-17 20:30, 0.10,3.2
2011-03-17 21:00, 0.10,2.0
2011-03-17 21:30, 0.07,3.2
2011-03-17 22:00, 0.07,3.2
2011-03-17 22:30, 0.09,3.2
2011-03-17 23:00, 0.06,4.6
2011-03-17 23:30, 0.07,5.3
2011-03-18 00:00, 0.07,3.2
2011-03-18 00:30, 0.08,3.2
2011-03-18 01:00, 0.07,3.6
2011-03-18 01:30, 0.09,3.2
2011-03-18 02:00, 0.13,3.6
2011-03-18 02:30, 0.16,4.0
2011-03-18 03:00, 0.20,3.6
2011-03-18 03:30, 0.14,4.0
2011-03-18 04:00, 0.20,4.0
2011-03-18 04:30, 0.21,4.0
2011-03-18 05:00, 0.30,4.6
2011-03-18 05:30, 0.24,4.0
2011-03-18 06:00, 0.23,4.6
2011-03-18 06:30, 0.25,4.6
2011-03-18 07:00, 0.34,3.2
2011-03-18 07:30, 0.28,4.6
2011-03-18 08:00, 0.34,4.0
2011-03-18 08:30, 0.30,2.9
2011-03-18 09:00, 0.27,4.0
2011-03-18 09:30, 0.22,4.6
2011-03-18 10:00, 0.25,4.6
2011-03-18 10:30, 0.25,4.0
2011-03-18 11:00, 0.25,4.6
2011-03-18 11:30, 0.27,4.0
2011-03-18 12:00, 0.26,5.3
2011-03-18 12:30, 0.21,4.6
2011-03-18 13:00, 0.13,5.3
2011-03-18 13:30, 0.14,5.3
2011-03-18 14:00, 0.15,5.3
2011-03-18 14:30, 0.22,5.3
2011-03-18 15:00, 0.31,4.0
2011-03-18 15:30, 0.30,4.6
2011-03-18 16:00, 0.26,3.6
2011-03-18 16:30, 0.28,4.0
2011-03-18 17:00, 0.36,4.6
2011-03-18 17:30, 0.38,4.6
2011-03-18 18:00, 0.36,5.3
2011-03-18 18:30, 0.35,3.6
2011-03-18 19:00, 0.27,3.2
2011-03-18 19:30, 0.29,4.0
2011-03-18 20:00, 0.33,1.8
2011-03-18 20:30, 0.27,4.0
2011-03-18 21:00, 0.33,5.3
2011-03-18 21:30, 0.32,4.6
2011-03-18 22:00, 0.30,4.6
2011-03-18 22:30, 0.23,4.6
2011-03-18 23:00, 0.17,4.6
2011-03-18 23:30, 0.12,4.6
2011-03-19 00:00, 0.14,4.6
2011-03-19 00:30, 0.13,5.3
2011-03-19 01:00, 0.12,5.3
2011-03-19 01:30, 0.08,5.3
2011-03-19 02:00, 0.08,5.3
2011-03-19 02:30, 0.08,5.3
2011-03-19 03:00, 0.10,5.3
2011-03-19 03:30, 0.11,5.3
2011-03-19 04:00, 0.10,5.3
2011-03-19 04:30, 0.10,5.3
2011-03-19 05:00, 0.12,4.6
2011-03-19 05:30, 0.09,5.3
2011-03-19 06:00, 0.12,4.6
2011-03-19 06:30, 0.13,4.6
2011-03-19 07:00, 0.10,4.6
2011-03-19 07:30, 0.09,4.6
2011-03-19 08:00, 0.07,4.6
2011-03-19 08:30, 0.13,16.0
2011-03-19 09:00, 0.09,4.6
2011-03-19 09:30, 0.08,4.6
2011-03-19 10:00, 0.06,3.6
2011-03-19 10:30, 0.05,6.4
2011-03-19 11:00, 0.06,5.3
2011-03-19 11:30, 0.07,5.3
2011-03-19 12:00, 0.07,10.7
2011-03-19 12:30, 0.05,8.0
2011-03-19 13:00, 0.04,1.6
2011-03-19 13:30, 0.08,1.8
2011-03-19 14:00, 0.16,2.1
2011-03-19 14:30, 0.15,2.1
2011-03-19 15:00, 0.19,2.0
2011-03-19 15:30, 0.20,2.1
2011-03-19 16:00, 0.22,2.0
2011-03-19 16:30, 0.18,1.8
2011-03-19 17:00, 0.16,1.8
2011-03-19 17:30, 0.15,1.7
2011-03-19 18:00, 0.14,1.7
2011-03-19 18:30, 0.12,1.5
2011-03-19 19:00, 0.03,1.2
2011-03-19 19:30, 0.02,1.2
2011-03-19 20:00, 0.05,4.0
2011-03-19 20:30, 0.06,5.3
2011-03-19 21:00, 0.08,5.3
2011-03-19 21:30, 0.09,1.5
2011-03-19 22:00, 0.11,1.9
2011-03-19 22:30, 0.09,10.7
2011-03-19 23:00, 0.05,1.8
2011-03-19 23:30, 0.03,3.6
2011-03-20 00:00, 0.03,4.6
2011-03-20 00:30, 0.03,4.6
2011-03-20 01:00, 0.03,5.3
2011-03-20 01:30, 0.02,5.3
2011-03-20 02:00, 0.05,10.7
2011-03-20 02:30, 0.03,6.4
2011-03-20 03:00, 0.04,6.4
2011-03-20 03:30, 0.04,6.4
2011-03-20 04:00, 0.06,1.6
2011-03-20 04:30, 0.10,1.7
2011-03-20 05:00, 0.07,1.6
2011-03-20 05:30, 0.08,1.5
2011-03-20 06:00, 0.10,1.6
2011-03-20 06:30, 0.04,1.5
2011-03-20 07:00, 0.04,1.4
2011-03-20 07:30, 0.04,1.4
2011-03-20 08:00, 0.04,1.5
2011-03-20 08:30, 0.02,1.2
2011-03-20 09:00, 0.02,1.2
2011-03-20 09:30, 0.02,1.3
2011-03-20 10:00, 0.04,1.6
2011-03-20 10:30, 0.05,1.7
2011-03-20 11:00, 0.03,5.3
2011-03-20 11:30, 0.02,5.3
2011-03-20 12:00, 0.02,4.6
2011-03-20 12:30, 0.04,1.6
2011-03-20 13:00, 0.05,1.7
2011-03-20 13:30, 0.09,1.9
2011-03-20 14:00, 0.10,1.9
2011-03-20 14:30, 0.10,1.9
2011-03-20 15:00, 0.10,1.8
2011-03-20 15:30, 0.05,1.5
2011-03-20 16:00, 0.03,1.7
2011-03-20 16:30, 0.02,1.8
2011-03-20 17:00, 0.02,1.3
2011-03-20 17:30, 0.01,2.3
2011-03-20 18:00, 0.01,2.3
2011-03-20 18:30, 0.01,4.0
2011-03-20 19:00, 0.06,1.7
2011-03-20 19:30, 0.12,2.1
2011-03-20 20:00, 0.13,2.1
2011-03-20 20:30, 0.17,2.3
2011-03-20 21:00, 0.25,2.5
2011-03-20 21:30, 0.27,2.5
2011-03-20 22:00, 0.33,2.9
2011-03-20 22:30, 0.25,2.9
2011-03-20 23:00, 0.21,3.2
2011-03-20 23:30, 0.21,2.9
2011-03-21 00:00, 0.09,3.2
2011-03-21 00:30, 0.05,3.2
2011-03-21 01:00, 0.10,3.2
2011-03-21 01:30, 0.10,3.6
2011-03-21 02:00, 0.14,3.6
2011-03-21 02:30, 0.11,3.6
2011-03-21 03:00, 0.12,3.6
2011-03-21 03:30, 0.16,3.6
2011-03-21 04:00, 0.20,3.6
2011-03-21 04:30, 0.19,4.0
2011-03-21 05:00, 0.24,4.0
2011-03-21 05:30, 0.27,4.0
2011-03-21 06:00, 0.19,4.0
2011-03-21 06:30, 0.19,4.6
2011-03-21 07:00, 0.29,4.6
2011-03-21 07:30, 0.31,4.6
2011-03-21 08:00, 0.41,4.0
2011-03-21 08:30, 0.45,4.6
2011-03-21 09:00, 0.41,3.6
2011-03-21 09:30, 0.41,3.6
2011-03-21 10:00, 0.44,4.6
2011-03-21 10:30, 0.45,4.6
2011-03-21 11:00, 0.40,4.6
2011-03-21 11:30, 0.43,5.3
2011-03-21 12:00, 0.46,4.6
2011-03-21 12:30, 0.45,4.6
2011-03-21 13:00, 0.34,4.6
2011-03-21 13:30, 0.28,3.6
2011-03-21 14:00, 0.27,5.3
2011-03-21 14:30, 0.25,4.0
2011-03-21 15:00, 0.28,4.0
2011-03-21 15:30, 0.28,4.6
2011-03-21 16:00, 0.24,4.6
2011-03-21 16:30, 0.13,5.3
2011-03-21 17:00, 0.13,5.3
2011-03-21 17:30, 0.18,5.3
2011-03-21 18:00, 0.21,5.3
2011-03-21 18:30, 0.18,4.0
2011-03-21 19:00, 0.19,5.3
2011-03-21 19:30, 0.27,5.3
2011-03-21 20:00, 0.28,5.3
2011-03-21 20:30, 0.32,5.3
2011-03-21 21:00, 0.33,5.3
2011-03-21 21:30, 0.35,4.0
2011-03-21 22:00, 0.37,4.6
2011-03-21 22:30, 0.35,5.3
2011-03-21 23:00, 0.31,4.6
2011-03-21 23:30, 0.30,5.3
2011-03-22 00:00, 0.31,5.3
2011-03-22 00:30, 0.27,5.3
2011-03-22 01:00, 0.23,5.3
2011-03-22 01:30, 0.20,5.3
2011-03-22 02:00, 0.19,5.3
2011-03-22 02:30, 0.18,4.6
2011-03-22 03:00, 0.18,5.3
2011-03-22 03:30, 0.12,5.3
2011-03-22 04:00, 0.14,5.3
2011-03-22 04:30, 0.13,4.6
2011-03-22 05:00, 0.14,4.6
2011-03-22 05:30, 0.13,6.4
2011-03-22 06:00, 0.13,6.4
2011-03-22 06:30, 0.14,6.4
2011-03-22 07:00, 0.20,4.6
2011-03-22 07:30, 0.17,4.6
2011-03-22 08:00, 0.13,4.6
2011-03-22 08:30, 0.16,4.0
2011-03-22 09:00, 0.15,4.6
2011-03-22 09:30, 0.15,4.0
2011-03-22 10:00, 0.17,3.6
2011-03-22 10:30, 0.16,4.0
2011-03-22 11:00, 0.15,4.0
2011-03-22 11:30, 0.14,3.6
2011-03-22 12:00, 0.13,4.6
2011-03-22 12:30, 0.11,4.6
2011-03-22 13:00, 0.11,4.6
2011-03-22 13:30, 0.11,4.0
2011-03-22 14:00, 0.12,4.0
2011-03-22 14:30, 0.11,4.0
2011-03-22 15:00, 0.09,1.8
2011-03-22 15:30, 0.08,1.7
2011-03-22 16:00, 0.09,1.7
2011-03-22 16:30, 0.08,1.5
2011-03-22 17:00, 0.08,4.6
2011-03-22 17:30, 0.06,4.6
2011-03-22 18:00, 0.06,4.0
2011-03-22 18:30, 0.06,4.0
2011-03-22 19:00, 0.05,4.6
2011-03-22 19:30, 0.04,6.4
2011-03-22 20:00, 0.05,5.3
2011-03-22 20:30, 0.06,4.6
2011-03-22 21:00, 0.07,4.6
2011-03-22 21:30, 0.10,4.6
2011-03-22 22:00, 0.13,4.6
2011-03-22 22:30, 0.09,4.6
2011-03-22 23:00, 0.10,4.6
2011-03-22 23:30, 0.10,4.6
2011-03-23 00:00, 0.11,4.6
2011-03-23 00:30, 0.12,4.6
2011-03-23 01:00, 0.12,4.6
2011-03-23 01:30, 0.10,4.6
2011-03-23 02:00, 0.09,4.6
2011-03-23 02:30, 0.06,4.6
2011-03-23 03:00, 0.04,4.6
2011-03-23 03:30, 0.04,4.6
2011-03-23 04:00, 0.05,4.6
2011-03-23 04:30, 0.05,5.3
2011-03-23 05:00, 0.08,1.8
2011-03-23 05:30, 0.07,5.3
2011-03-23 06:00, 0.08,1.8
2011-03-23 06:30, 0.10,1.7
2011-03-23 07:00, 0.09,1.7
2011-03-23 07:30, 0.06,1.5
2011-03-23 08:00, 0.06,1.5
2011-03-23 08:30, 0.06,2.9
2011-03-23 09:00, 0.02,1.2
2011-03-23 09:30, 0.05,4.6
2011-03-23 10:00, 0.04,5.3
2011-03-23 10:30, 0.09,2.3
2011-03-23 11:00, 0.04,3.6
2011-03-23 11:30, 0.07,4.6
2011-03-23 12:00, 0.07,4.6
2011-03-23 12:30, 0.07,4.6
2011-03-23 13:00, 0.06,1.5
2011-03-23 13:30, 0.06,1.7
2011-03-23 14:00, 0.07,1.6
2011-03-23 14:30, 0.08,1.6
2011-03-23 15:00, 0.09,1.7
2011-03-23 15:30, 0.07,1.7
2011-03-23 16:00, 0.05,5.3
2011-03-23 16:30, 0.04,5.3
2011-03-23 17:00, 0.03,5.3
2011-03-23 17:30, 0.03,5.3
2011-03-23 18:00, 0.03,5.3
2011-03-23 18:30, 0.03,6.4
2011-03-23 19:00, 0.04,5.3
2011-03-23 19:30, 0.05,5.3
2011-03-23 20:00, 0.03,6.4
2011-03-23 20:30, 0.03,5.3
2011-03-23 21:00, 0.05,5.3
2011-03-23 21:30, 0.05,5.3
2011-03-23 22:00, 0.06,5.3
2011-03-23 22:30, 0.08,5.3
2011-03-23 23:00, 0.07,4.0
2011-03-23 23:30, 0.08,2.5
2011-03-24 00:00, 0.06,5.3
2011-03-24 00:30, 0.06,3.6
2011-03-24 01:00, 0.05,5.3
2011-03-24 01:30, 0.07,5.3
2011-03-24 02:00, 0.04,6.4
2011-03-24 02:30, 0.04,5.3
2011-03-24 03:00, 0.03,5.3
2011-03-24 03:30, 0.04,6.4
2011-03-24 04:00, 0.04,6.4
2011-03-24 04:30, 0.09,2.0
2011-03-24 05:00, 0.11,2.0
2011-03-24 05:30, 0.11,1.9
2011-03-24 06:00, 0.11,1.9
2011-03-24 06:30, 0.13,2.0
2011-03-24 07:00, 0.14,1.9
2011-03-24 07:30, 0.13,1.8
2011-03-24 08:00, 0.13,1.7
2011-03-24 08:30, 0.16,1.8
2011-03-24 09:00, 0.12,1.6
2011-03-24 09:30, 0.11,1.5
2011-03-24 10:00, 0.10,1.6
2011-03-24 10:30, 0.08,5.3
2011-03-24 11:00, 0.08,5.3
2011-03-24 11:30, 0.10,5.3
2011-03-24 12:00, 0.14,1.6
2011-03-24 12:30, 0.17,1.7
2011-03-24 13:00, 0.13,1.7
2011-03-24 13:30, 0.18,1.8
2011-03-24 14:00, 0.17,1.9
2011-03-24 14:30, 0.14,1.8
2011-03-24 15:00, 0.15,1.8
2011-03-24 15:30, 0.16,1.8
2011-03-24 16:00, 0.16,1.9
2011-03-24 16:30, 0.15,2.0
2011-03-24 17:00, 0.16,2.1
2011-03-24 17:30, 0.12,1.9
2011-03-24 18:00, 0.12,1.9
2011-03-24 18:30, 0.09,1.9
2011-03-24 19:00, 0.10,1.9
2011-03-24 19:30, 0.08,1.9
2011-03-24 20:00, 0.09,3.2
2011-03-24 20:30, 0.07,1.8
2011-03-24 21:00, 0.05,1.7
2011-03-24 21:30, 0.04,6.4
2011-03-24 22:00, 0.03,6.4
2011-03-24 22:30, 0.03,6.4
2011-03-24 23:00, 0.05,5.3
2011-03-24 23:30, 0.06,5.3
2011-03-25 00:00, 0.07,4.0
2011-03-25 00:30, 0.06,3.6
2011-03-25 01:00, 0.05,5.3
2011-03-25 01:30, 0.04,2.3
2011-03-25 02:00, 0.04,2.1
2011-03-25 02:30, 0.04,6.4
2011-03-25 03:00, 0.05,6.4
2011-03-25 03:30, 0.05,5.3
2011-03-25 04:00, 0.04,5.3
2011-03-25 04:30, 0.04,5.3
2011-03-25 05:00, 0.04,4.0
2011-03-25 05:30, 0.04,1.6
2011-03-25 06:00, 0.05,1.7
2011-03-25 06:30, 0.06,1.7
2011-03-25 07:00, 0.07,1.8
2011-03-25 07:30, 0.08,1.8
2011-03-25 08:00, 0.08,1.8
2011-03-25 08:30, 0.06,1.6
2011-03-25 09:00, 0.04,6.4
2011-03-25 09:30, 0.03,4.0
2011-03-25 10:00, 0.03,6.4
2011-03-25 10:30, 0.02,1.2
2011-03-25 11:00, 0.02,1.3
2011-03-25 11:30, 0.03,6.4
2011-03-25 12:00, 0.04,4.6
2011-03-25 12:30, 0.04,4.6
2011-03-25 13:00, 0.05,4.6
2011-03-25 13:30, 0.06,4.0
2011-03-25 14:00, 0.06,5.3
2011-03-25 14:30, 0.08,4.0
2011-03-25 15:00, 0.07,4.6
2011-03-25 15:30, 0.07,4.6
2011-03-25 16:00, 0.07,4.6
2011-03-25 16:30, 0.07,4.6
2011-03-25 17:00, 0.06,5.3
2011-03-25 17:30, 0.07,3.6
2011-03-25 18:00, 0.07,3.6
2011-03-25 18:30, 0.04,6.4
2011-03-25 19:00, 0.03,3.2
2011-03-25 19:30, 0.07,5.3
2011-03-25 20:00, 0.06,4.0
2011-03-25 20:30, 0.15,1.9
2011-03-25 21:00, 0.20,2.3
2011-03-25 21:30, 0.15,2.3
2011-03-25 22:00, 0.09,1.5
2011-03-25 22:30, 0.07,10.7
2011-03-25 23:00, 0.04,6.4
2011-03-25 23:30, 0.02,5.3
2011-03-26 00:00, 0.03,5.3
2011-03-26 00:30, 0.04,4.0
2011-03-26 01:00, 0.07,3.6
2011-03-26 01:30, 0.11,3.6
2011-03-26 02:00, 0.09,3.6
2011-03-26 02:30, 0.09,1.5
2011-03-26 03:00, 0.12,1.5
2011-03-26 03:30, 0.10,1.9
2011-03-26 04:00, 0.12,1.5
2011-03-26 04:30, 0.09,1.6
2011-03-26 05:00, 0.08,1.5
2011-03-26 05:30, 0.10,1.6
2011-03-26 06:00, 0.06,1.5
2011-03-26 06:30, 0.07,1.6
2011-03-26 07:00, 0.05,1.5
2011-03-26 07:30, 0.05,1.3
2011-03-26 08:00, 0.04,4.0
2011-03-26 08:30, 0.04,1.3
2011-03-26 09:00, 0.04,1.5
2011-03-26 09:30, 0.05,1.5
2011-03-26 10:00, 0.06,1.5
2011-03-26 10:30, 0.07,1.5
2011-03-26 11:00, 0.08,1.5
2011-03-26 11:30, 0.05,1.4
2011-03-26 12:00, 0.06,5.3
2011-03-26 12:30, 0.05,4.0
2011-03-26 13:00, 0.05,4.0
2011-03-26 13:30, 0.07,5.3
2011-03-26 14:00, 0.10,1.5
2011-03-26 14:30, 0.12,1.6
2011-03-26 15:00, 0.15,3.6
2011-03-26 15:30, 0.16,1.6
2011-03-26 16:00, 0.18,1.6
2011-03-26 16:30, 0.22,1.8
2011-03-26 17:00, 0.22,1.8
2011-03-26 17:30, 0.24,1.9
2011-03-26 18:00, 0.29,1.9
2011-03-26 18:30, 0.28,1.8
2011-03-26 19:00, 0.32,1.8
2011-03-26 19:30, 0.27,1.9
2011-03-26 20:00, 0.22,1.9
2011-03-26 20:30, 0.26,1.7
2011-03-26 21:00, 0.24,1.9
2011-03-26 21:30, 0.21,1.8
2011-03-26 22:00, 0.23,1.7
2011-03-26 22:30, 0.24,1.8
2011-03-26 23:00, 0.22,1.8
2011-03-26 23:30, 0.17,1.7
2011-03-27 00:00, 0.14,1.7
2011-03-27 00:30, 0.11,2.3
2011-03-27 01:00, 0.12,1.5
2011-03-27 01:30, 0.11,1.5
2011-03-27 02:00, 0.11,1.5
2011-03-27 02:30, 0.13,1.7
2011-03-27 03:00, 0.16,1.7
2011-03-27 03:30, 0.11,1.5
2011-03-27 04:00, 0.10,1.5
2011-03-27 04:30, 0.12,1.6
2011-03-27 05:00, 0.11,1.6
2011-03-27 05:30, 0.11,1.5
2011-03-27 06:00, 0.10,1.5
2011-03-27 06:30, 0.11,1.6
2011-03-27 07:00, 0.09,2.7
2011-03-27 07:30, 0.08,1.5
2011-03-27 08:00, 0.14,1.6
2011-03-27 08:30, 0.10,1.5
2011-03-27 09:00, 0.05,2.9
2011-03-27 09:30, 0.07,2.7
2011-03-27 10:00, 0.10,1.5
2011-03-27 10:30, 0.12,2.9
2011-03-27 11:00, 0.13,3.2
2011-03-27 11:30, 0.10,2.9
2011-03-27 12:00, 0.09,3.6
2011-03-27 12:30, 0.09,3.6
2011-03-27 13:00, 0.10,3.6
2011-03-27 13:30, 0.10,3.2
2011-03-27 14:00, 0.11,3.2
2011-03-27 14:30, 0.14,4.0